Regional Weather Roundup
Issued by NWS Green Bay, WI

Home | Current Version | Previous Version | Graphics & Text | Print | Product List | Glossary Off
Versions: 1 2 3 4 5 6 7 8 9 10 11 12 13 14 15 16 17 18 19 20 21 22 23 24 25 26 27 28 29 30 31 32 33 34 35 36 37 38 39 40 41 42 43 44 45 46 47 48 49 50

000
ASUS43 KGRB 232211
RWRGRB

NORTH-CENTRAL AND NORTHEAST WISCONSIN REGIONAL WEATHER ROUNDUP
NATIONAL WEATHER SERVICE GREEN BAY WI
500 PM CDT THU MAR 23 2017

WIZ005-009-010>012-018-019-232300-
NORTH CENTRAL WISCONSIN

CITY           SKY/WX    TMP DP  RH WIND       PRES   REMARKS
IRONWOOD       LGT RAIN  39  22  50 S7G17     29.96S
MANITOWISH WTR CLOUDY    36  21  55 S12G17    29.95S
ARBOR VITAE    CLOUDY    37  22  54 S12       29.96S
EAGLE RIVER    CLOUDY    36  18  48 SE10      29.95F
LAND O LAKES   CLOUDY    37  19  50 S9G16     29.97F
RHINELANDER    CLOUDY    38  21  50 SE12G21   29.98F
PHILLIPS       CLOUDY    37  23  56 S9G17     29.96R
ANTIGO         CLOUDY    36  24  62 SE15G23   29.98F
TOMAHAWK       CLOUDY    38  20  49 S5        29.96F
MERRILL        CLOUDY    39  20  45 SE14      29.96F
$$

WIZ013-073-232300-
NORTHEAST WISCONSIN

CITY           SKY/WX    TMP DP  RH WIND       PRES   REMARKS
IRON MOUNTAIN  CLOUDY    35  22  58 S9        30.05F
MARINETTE        N/A    N/A N/A N/A MISG        N/A
OCONTO         CLOUDY    35  26  69 S10       30.12F
$$

WIZ017-030-035>037-045-232300-
CENTRAL WISCONSIN

CITY           SKY/WX    TMP DP  RH WIND       PRES   REMARKS
MEDFORD        CLOUDY    37  21  53 SE9       29.96F
WAUSAU         CLOUDY    39  20  46 SE16G23   29.95F
MOSINEE        CLOUDY    39  19  45 SE9G18    29.98F
MARSHFIELD     CLOUDY    40  21  46 SE9       29.96F
WISC RAPIDS    CLOUDY    42  21  43 SE16G24   29.94F
STEVENS POINT  CLOUDY    38  21  49 SE13G24   29.96F
WAUPACA        CLOUDY    44  23  44 E12       30.02F
SHAWANO        CLOUDY    41  26  54 SE10      30.09F
CLINTONVILLE   CLOUDY    41  25  52 SE13      30.07F
WAUTOMA        CLOUDY    44  23  43 SE14      30.00F
$$

WIZ038-039-048-051-232300-
FOX VALLEY

CITY           SKY/WX    TMP DP  RH WIND       PRES   REMARKS
NWS GREEN BAY  CLOUDY    37  28  70 SE16      30.11F
APPLETON       CLOUDY    37  23  56 SE12G18   30.09F
OSHKOSH        CLOUDY    40  27  59 SE12      30.08F
FOND DU LAC    CLOUDY    42  27  55 SE10      30.09F
$$

WIZ022-050-052-232300-
EAST CENTRAL WISCONSIN

CITY           SKY/WX    TMP DP  RH WIND       PRES   REMARKS
EPHRAIM        CLOUDY    34  25  70 S17G26    30.12F
WASHINGTON ISL CLOUDY    35  24  64 S12G22    30.13F
STURGEON BAY   CLOUDY    35  25  66 S17G24    30.14F
MANITOWOC      CLOUDY    36  27  69 S18G24    30.15F
SHEBOYGAN      CLOUDY    36  25  64 S16G23    30.15F
$$

LMZ563-521-522-541>543-232300-
LAKESHORE

STATION/POSITION TIME  TEMP    WIND        PRES    VSBY  WAVE
                       AIR SEA DIR/SP/G                  HT/PER
                 (UTC) (F)     (DEG/KT/KT) (MB)    (MI)  (FT/S)
SHEBOYGAN LKSHOR 2200   36     170/ 21/ 23 1021.2F
KEWAUNEE LKSHORE 2148   35     180/ 20/ 24 1021.0F
NORTHPORT PIER   2200   35     150/ 12/ 23 1020.3
CHAMBERS ISLAND  2140   35     170/  8/ 14 1020.3F
MENOMINEE LKSHOR 2148   34      10/ 14/ 18 1019.7F
$$



USA.gov is the U.S. government's official web portal to all federal, state and local government web resources and services.